Time,TemperatureF,DewpointF,PressureIn,WindDirection,WindDirectionDegrees,WindSpeedMPH,WindSpeedGustMPH,Humidity,HourlyPrecipIn,Conditions,Clouds,dailyrainin,SoftwareType,DateUTC
2015-09-03 00:00:00,58.6,47.7,29.73,South,177,7.0,12.0,67,0.00,CLR,,0.00,WeatherDisplay:10.37,2015-09-03 07:00:00,
2015-09-03 00:05:00,58.4,47.8,29.73,South,182,5.0,10.0,68,0.00,CLR,,0.00,WeatherDisplay:10.37,2015-09-03 07:05:00,
2015-09-03 00:10:00,58.3,48.9,29.72,South,176,6.0,12.0,71,0.00,CLR,,0.00,WeatherDisplay:10.37,2015-09-03 07:10:00,
2015-09-03 00:15:00,58.1,49.5,29.72,South,173,6.0,12.0,73,0.00,CLR,,0.00,WeatherDisplay:10.37,2015-09-03 07:15:00,
2015-09-03 00:20:00,58.0,49.8,29.72,South,175,6.0,12.0,74,0.00,CLR,,0.00,WeatherDisplay:10.37,2015-09-03 07:20:00,
2015-09-03 00:25:00,58.0,50.1,29.71,South,173,7.0,12.0,75,0.00,CLR,,0.00,WeatherDisplay:10.37,2015-09-03 07:25:00,
2015-09-03 00:30:00,57.8,50.3,29.71,South,178,7.0,12.0,76,0.00,CLR,,0.00,WeatherDisplay:10.37,2015-09-03 07:30:00,
2015-09-03 00:40:00,57.6,50.4,29.70,South,177,6.0,12.0,77,0.00,CLR,,0.00,WeatherDisplay:10.37,2015-09-03 07:40:00,
2015-09-03 00:45:00,57.6,50.4,29.70,South,182,8.0,14.0,77,0.00,CLR,,0.00,WeatherDisplay:10.37,2015-09-03 07:45:00,
2015-09-03 00:50:00,57.6,50.1,29.70,South,183,6.0,10.0,76,0.00,CLR,,0.00,WeatherDisplay:10.37,2015-09-03 07:50:00,
2015-09-03 00:55:00,57.5,50.0,29.69,South,184,7.0,12.0,76,0.00,CLR,,0.00,WeatherDisplay:10.37,2015-09-03 07:55:00,
2015-09-03 01:00:00,57.5,50.7,29.69,South,183,8.0,13.0,78,0.00,CLR,,0.00,WeatherDisplay:10.37,2015-09-03 08:00:00,
2015-09-03 01:10:00,57.0,50.9,29.70,South,186,6.0,13.0,80,0.00,CLR,,0.00,WeatherDisplay:10.37,2015-09-03 08:10:00,
2015-09-03 01:15:00,56.8,51.0,29.70,South,178,8.0,12.0,81,0.00,CLR,,0.00,WeatherDisplay:10.37,2015-09-03 08:15:00,
2015-09-03 01:20:00,56.7,50.9,29.70,South,172,8.0,15.0,81,0.00,CLR,,0.00,WeatherDisplay:10.37,2015-09-03 08:20:00,
2015-09-03 01:30:00,56.5,51.1,29.69,South,170,7.0,13.0,82,0.00,CLR,,0.00,WeatherDisplay:10.37,2015-09-03 08:30:00,
2015-09-03 01:40:00,56.3,51.2,29.69,South,183,5.0,12.0,83,0.00,CLR,,0.00,WeatherDisplay:10.37,2015-09-03 08:40:00,
2015-09-03 01:50:00,56.0,51.2,29.69,South,170,7.0,12.0,84,0.00,CLR,,0.00,WeatherDisplay:10.37,2015-09-03 08:50:00,
2015-09-03 01:55:00,55.9,51.5,29.68,South,172,6.0,10.0,85,0.00,CLR,,0.00,WeatherDisplay:10.37,2015-09-03 08:55:00,
2015-09-03 02:00:00,55.8,51.4,29.68,South,175,6.0,12.0,85,0.00,CLR,,0.00,WeatherDisplay:10.37,2015-09-03 09:00:00,
2015-09-03 02:05:00,55.7,51.3,29.68,South,170,7.0,12.0,85,0.00,CLR,,0.00,WeatherDisplay:10.37,2015-09-03 09:05:00,
2015-09-03 02:10:00,55.7,51.3,29.68,South,170,7.0,10.0,85,0.00,CLR,,0.00,WeatherDisplay:10.37,2015-09-03 09:10:00,
2015-09-03 02:15:00,55.7,51.3,29.68,SSE,163,7.0,12.0,85,0.00,CLR,,0.00,WeatherDisplay:10.37,2015-09-03 09:15:00,
2015-09-03 02:20:00,55.6,51.5,29.68,SSE,165,7.0,12.0,86,0.00,CLR,,0.00,WeatherDisplay:10.37,2015-09-03 09:20:00,
2015-09-03 02:30:00,55.3,51.5,29.67,South,172,6.0,12.0,87,0.00,CLR,,0.00,WeatherDisplay:10.37,2015-09-03 09:30:00,
2015-09-03 02:40:00,55.1,51.3,29.67,South,177,6.0,10.0,87,0.00,CLR,,0.00,WeatherDisplay:10.37,2015-09-03 09:40:00,
2015-09-03 02:45:00,55.1,51.3,29.67,South,190,6.0,10.0,87,0.00,CLR,,0.00,WeatherDisplay:10.37,2015-09-03 09:45:00,
2015-09-03 02:50:00,55.0,51.2,29.67,South,188,6.0,10.0,87,0.00,CLR,,0.00,WeatherDisplay:10.37,2015-09-03 09:50:00,
2015-09-03 02:55:00,55.0,51.2,29.67,SSW,198,6.0,10.0,87,0.00,CLR,,0.00,WeatherDisplay:10.37,2015-09-03 09:55:00,
2015-09-03 03:00:00,55.0,51.2,29.67,SSW,209,6.0,9.0,87,0.00,CLR,,0.00,WeatherDisplay:10.37,2015-09-03 10:00:00,
2015-09-03 03:10:00,54.8,51.0,29.67,SW,214,5.0,9.0,87,0.00,CLR,,0.00,WeatherDisplay:10.37,2015-09-03 10:10:00,
2015-09-03 03:15:00,54.7,51.2,29.67,SW,220,6.0,9.0,88,0.00,CLR,,0.00,WeatherDisplay:10.37,2015-09-03 10:15:00,
2015-09-03 03:20:00,54.5,51.3,29.67,SW,228,7.0,9.0,89,0.00,CLR,,0.00,WeatherDisplay:10.37,2015-09-03 10:20:00,
2015-09-03 03:25:00,54.4,51.5,29.67,SW,229,6.0,10.0,90,0.00,CLR,,0.00,WeatherDisplay:10.37,2015-09-03 10:25:00,
2015-09-03 03:30:00,54.2,51.6,29.67,SW,224,6.0,7.0,91,0.00,CLR,,0.00,WeatherDisplay:10.37,2015-09-03 10:30:00,
2015-09-03 03:40:00,54.1,52.1,29.67,WSW,252,6.0,9.0,93,0.00,CLR,,0.00,WeatherDisplay:10.37,2015-09-03 10:40:00,
2015-09-03 03:45:00,53.9,51.9,29.67,WSW,238,6.0,9.0,93,0.00,CLR,,0.00,WeatherDisplay:10.37,2015-09-03 10:45:00,
2015-09-03 03:50:00,54.1,52.4,29.67,WSW,249,6.0,10.0,94,0.00,CLR,,0.00,WeatherDisplay:10.37,2015-09-03 10:50:00,
2015-09-03 04:00:00,53.9,52.5,29.67,SSW,209,9.0,13.0,95,0.00,CLR,,0.00,WeatherDisplay:10.37,2015-09-03 11:00:00,
2015-09-03 04:10:00,53.8,52.7,29.67,South,177,6.0,10.0,96,0.00,CLR,,0.00,WeatherDisplay:10.37,2015-09-03 11:10:00,
2015-09-03 04:20:00,53.6,52.8,29.67,South,186,7.0,10.0,97,0.00,CLR,,0.00,WeatherDisplay:10.37,2015-09-03 11:20:00,
2015-09-03 04:25:00,53.6,52.8,29.68,South,182,6.0,13.0,97,0.00,CLR,,0.00,WeatherDisplay:10.37,2015-09-03 11:25:00,
2015-09-03 04:30:00,53.5,52.7,29.68,South,178,6.0,10.0,97,0.00,CLR,,0.00,WeatherDisplay:10.37,2015-09-03 11:30:00,
2015-09-03 04:40:00,53.5,52.7,29.68,SSW,197,9.0,12.0,97,0.00,CLR,,0.00,WeatherDisplay:10.37,2015-09-03 11:40:00,
2015-09-03 04:50:00,53.5,52.7,29.68,SSW,210,1.0,6.0,97,0.00,CLR,,0.00,WeatherDisplay:10.37,2015-09-03 11:50:00,
2015-09-03 04:55:00,53.5,52.7,29.68,SW,223,2.0,6.0,97,0.00,CLR,,0.00,WeatherDisplay:10.37,2015-09-03 11:55:00,
2015-09-03 05:00:00,53.5,52.7,29.68,SSW,200,6.0,12.0,97,0.00,CLR,,0.00,WeatherDisplay:10.37,2015-09-03 12:00:00,
2015-09-03 05:10:00,53.6,52.8,29.68,SSW,194,7.0,10.0,97,0.00,CLR,,0.00,WeatherDisplay:10.37,2015-09-03 12:10:00,
2015-09-03 05:15:00,53.6,52.8,29.68,SSW,200,7.0,12.0,97,0.00,CLR,,0.00,WeatherDisplay:10.37,2015-09-03 12:15:00,
2015-09-03 05:20:00,53.6,52.8,29.68,South,191,6.0,9.0,97,0.00,CLR,,0.00,WeatherDisplay:10.37,2015-09-03 12:20:00,
2015-09-03 05:25:00,53.6,52.8,29.69,South,186,6.0,7.0,97,0.00,CLR,,0.00,WeatherDisplay:10.37,2015-09-03 12:25:00,
2015-09-03 05:30:00,53.5,52.7,29.69,South,191,5.0,6.0,97,0.00,CLR,,0.00,WeatherDisplay:10.37,2015-09-03 12:30:00,
2015-09-03 05:40:00,53.2,52.4,29.69,SSW,194,5.0,7.0,97,0.00,CLR,,0.00,WeatherDisplay:10.37,2015-09-03 12:40:00,
2015-09-03 05:45:00,53.1,52.3,29.69,SSW,197,6.0,9.0,97,0.00,CLR,,0.00,WeatherDisplay:10.37,2015-09-03 12:45:00,
2015-09-03 05:50:00,53.1,52.0,29.69,SSW,199,5.0,10.0,96,0.00,CLR,,0.00,WeatherDisplay:10.37,2015-09-03 12:50:00,
2015-09-03 06:00:00,53.1,52.0,29.69,SSW,199,6.0,9.0,96,0.00,CLR,,0.00,WeatherDisplay:10.37,2015-09-03 13:00:00,
2015-09-03 06:10:00,53.2,52.1,29.69,SSW,201,5.0,7.0,96,0.00,CLR,,0.00,WeatherDisplay:10.37,2015-09-03 13:10:00,
2015-09-03 06:15:00,53.1,51.7,29.69,SSW,199,2.0,6.0,95,0.00,CLR,,0.00,WeatherDisplay:10.37,2015-09-03 13:15:00,
2015-09-03 06:20:00,53.1,52.3,29.69,SW,219,3.0,6.0,97,0.00,CLR,,0.00,WeatherDisplay:10.37,2015-09-03 13:20:00,
2015-09-03 06:25:00,53.1,51.7,29.72,SW,228,0.0,3.0,95,0.00,CLR,,0.00,WeatherDisplay:10.37,2015-09-03 13:25:00,
2015-09-03 06:30:00,52.9,51.5,29.72,SW,224,3.0,5.0,95,0.00,CLR,,0.00,WeatherDisplay:10.37,2015-09-03 13:30:00,
2015-09-03 06:40:00,52.5,51.1,29.72,NW,318,3.0,5.0,95,0.00,CLR,,0.00,WeatherDisplay:10.37,2015-09-03 13:40:00,
2015-09-03 06:50:00,52.5,51.3,29.72,NNW,346,2.0,4.0,96,0.00,CLR,,0.00,WeatherDisplay:10.37,2015-09-03 13:50:00,
2015-09-03 07:00:00,52.8,51.7,29.72,South,184,5.0,7.0,96,0.00,CLR,,0.00,WeatherDisplay:10.37,2015-09-03 14:00:00,
2015-09-03 07:10:00,52.7,51.9,29.72,SSW,203,6.0,9.0,97,0.00,CLR,,0.00,WeatherDisplay:10.37,2015-09-03 14:10:00,
2015-09-03 07:15:00,52.9,52.1,29.72,SSW,205,6.0,10.0,97,0.00,CLR,,0.00,WeatherDisplay:10.37,2015-09-03 14:15:00,
2015-09-03 07:20:00,53.2,52.4,29.72,SSW,207,6.0,10.0,97,0.00,CLR,,0.00,WeatherDisplay:10.37,2015-09-03 14:20:00,
2015-09-03 07:30:00,53.3,52.8,29.74,SSW,204,6.0,9.0,98,0.00,CLR,,0.00,WeatherDisplay:10.37,2015-09-03 14:30:00,
2015-09-03 07:40:00,53.3,52.7,29.74,SSW,211,7.0,9.0,98,0.00,CLR,,0.00,WeatherDisplay:10.37,2015-09-03 14:40:00,
2015-09-03 07:45:00,53.6,53.0,29.74,SSW,212,6.0,10.0,98,0.00,CLR,,0.00,WeatherDisplay:10.37,2015-09-03 14:45:00,
2015-09-03 07:50:00,53.8,53.2,29.74,SSW,205,5.0,9.0,98,0.00,CLR,,0.00,WeatherDisplay:10.37,2015-09-03 14:50:00,
2015-09-03 08:00:00,54.2,53.7,29.73,SSW,209,5.0,10.0,98,0.00,CLR,,0.00,WeatherDisplay:10.37,2015-09-03 15:00:00,
2015-09-03 08:10:00,54.8,53.7,29.73,SSW,210,8.0,12.0,96,0.00,CLR,,0.00,WeatherDisplay:10.37,2015-09-03 15:10:00,
2015-09-03 08:15:00,55.1,53.7,29.73,SSW,207,6.0,10.0,95,0.00,CLR,,0.00,WeatherDisplay:10.37,2015-09-03 15:15:00,
2015-09-03 08:20:00,55.4,53.7,29.73,SSW,200,7.0,12.0,94,0.00,CLR,,0.00,WeatherDisplay:10.37,2015-09-03 15:20:00,
2015-09-03 08:25:00,55.9,53.3,29.73,SSW,206,10.0,14.0,91,0.00,CLR,,0.00,WeatherDisplay:10.37,2015-09-03 15:25:00,
2015-09-03 08:30:00,56.2,52.7,29.73,SSW,211,10.0,13.0,88,0.00,CLR,,0.00,WeatherDisplay:10.37,2015-09-03 15:30:00,
2015-09-03 08:40:00,56.6,51.8,29.74,SW,214,10.0,16.0,84,0.00,CLR,,0.00,WeatherDisplay:10.37,2015-09-03 15:40:00,
2015-09-03 08:50:00,57.2,51.8,29.74,SSW,208,10.0,16.0,82,0.00,CLR,,0.00,WeatherDisplay:10.37,2015-09-03 15:50:00,
2015-09-03 09:00:00,57.5,51.4,29.74,SSW,205,9.0,16.0,80,0.00,CLR,,0.00,WeatherDisplay:10.37,2015-09-03 16:00:00,
2015-09-03 09:05:00,58.2,51.7,29.74,SSW,211,12.0,15.0,79,0.00,CLR,,0.00,WeatherDisplay:10.37,2015-09-03 16:05:00,
2015-09-03 09:10:00,58.4,51.6,29.74,SSW,208,12.0,15.0,78,0.00,CLR,,0.00,WeatherDisplay:10.37,2015-09-03 16:10:00,
2015-09-03 09:15:00,58.6,51.8,29.74,SSW,212,12.0,15.0,78,0.00,CLR,,0.00,WeatherDisplay:10.37,2015-09-03 16:15:00,
2015-09-03 09:20:00,59.0,51.4,29.74,SW,217,13.0,18.0,76,0.00,CLR,,0.00,WeatherDisplay:10.37,2015-09-03 16:20:00,
2015-09-03 09:25:00,59.2,51.3,29.75,SSW,210,12.0,18.0,75,0.00,CLR,,0.00,WeatherDisplay:10.37,2015-09-03 16:25:00,
2015-09-03 09:30:00,59.6,51.7,29.75,SSW,210,14.0,18.0,75,0.00,CLR,,0.00,WeatherDisplay:10.37,2015-09-03 16:30:00,
2015-09-03 09:40:00,60.3,51.2,29.74,SW,215,13.0,16.0,72,0.00,CLR,,0.00,WeatherDisplay:10.37,2015-09-03 16:40:00,
2015-09-03 09:45:00,60.4,51.3,29.74,SSW,209,12.0,18.0,72,0.00,CLR,,0.00,WeatherDisplay:10.37,2015-09-03 16:45:00,
2015-09-03 09:50:00,60.8,51.3,29.74,SW,216,12.0,17.0,71,0.00,CLR,,0.00,WeatherDisplay:10.37,2015-09-03 16:50:00,
2015-09-03 09:55:00,60.8,51.7,29.74,SW,218,13.0,18.0,72,0.00,CLR,,0.00,WeatherDisplay:10.37,2015-09-03 16:55:00,
2015-09-03 10:00:00,61.2,51.3,29.74,SSW,204,13.0,20.0,70,0.00,CLR,,0.00,WeatherDisplay:10.37,2015-09-03 17:00:00,
2015-09-03 10:10:00,61.8,51.5,29.74,SSW,207,10.0,18.0,69,0.00,CLR,,0.00,WeatherDisplay:10.37,2015-09-03 17:10:00,
2015-09-03 10:15:00,62.0,51.4,29.74,SW,219,12.0,15.0,68,0.00,CLR,,0.00,WeatherDisplay:10.37,2015-09-03 17:15:00,
2015-09-03 10:20:00,62.1,51.0,29.74,SW,227,10.0,16.0,67,0.00,CLR,,0.00,WeatherDisplay:10.37,2015-09-03 17:20:00,
2015-09-03 10:25:00,62.1,51.0,29.74,SW,215,14.0,18.0,67,0.00,CLR,,0.00,WeatherDisplay:10.37,2015-09-03 17:25:00,
2015-09-03 10:30:00,62.4,50.9,29.74,SSW,210,12.0,18.0,66,0.00,CLR,,0.00,WeatherDisplay:10.37,2015-09-03 17:30:00,
2015-09-03 10:40:00,63.5,51.1,29.74,SW,214,13.0,17.0,64,0.00,CLR,,0.00,WeatherDisplay:10.37,2015-09-03 17:40:00,
2015-09-03 10:45:00,63.9,51.1,29.74,SW,218,10.0,17.0,63,0.00,CLR,,0.00,WeatherDisplay:10.37,2015-09-03 17:45:00,
2015-09-03 10:50:00,64.2,50.9,29.74,SSW,212,10.0,18.0,62,0.00,CLR,,0.00,WeatherDisplay:10.37,2015-09-03 17:50:00,
2015-09-03 11:00:00,65.2,51.0,29.74,SW,223,12.0,17.0,60,0.00,CLR,,0.00,WeatherDisplay:10.37,2015-09-03 18:00:00,
2015-09-03 11:10:00,66.1,50.9,29.73,SW,224,10.0,17.0,58,0.00,CLR,,0.00,WeatherDisplay:10.37,2015-09-03 18:10:00,
2015-09-03 11:20:00,66.9,50.7,29.73,SSW,213,14.0,18.0,56,0.00,CLR,,0.00,WeatherDisplay:10.37,2015-09-03 18:20:00,
2015-09-03 11:30:00,67.4,50.6,29.73,SSW,211,13.0,17.0,55,0.00,CLR,,0.00,WeatherDisplay:10.37,2015-09-03 18:30:00,
2015-09-03 11:40:00,68.8,49.9,29.72,SSW,206,13.0,18.0,51,0.00,CLR,,0.00,WeatherDisplay:10.37,2015-09-03 18:40:00,
2015-09-03 11:45:00,69.3,50.4,29.72,SSW,210,9.0,15.0,51,0.00,CLR,,0.00,WeatherDisplay:10.37,2015-09-03 18:45:00,
2015-09-03 11:50:00,69.8,49.7,29.72,SSW,212,13.0,16.0,49,0.00,CLR,,0.00,WeatherDisplay:10.37,2015-09-03 18:50:00,
2015-09-03 11:55:00,69.9,49.8,29.70,SW,215,13.0,16.0,49,0.00,CLR,,0.00,WeatherDisplay:10.37,2015-09-03 18:55:00,
2015-09-03 12:00:00,70.4,49.8,29.70,SW,221,12.0,20.0,48,0.00,CLR,,0.00,WeatherDisplay:10.37,2015-09-03 19:00:00,
2015-09-03 12:10:00,70.9,49.1,29.70,SW,228,15.0,20.0,46,0.00,CLR,,0.00,WeatherDisplay:10.37,2015-09-03 19:10:00,
2015-09-03 12:20:00,71.8,47.5,29.70,SW,219,10.0,18.0,42,0.00,CLR,,0.00,WeatherDisplay:10.37,2015-09-03 19:20:00,
2015-09-03 12:25:00,72.7,48.3,29.69,SW,219,12.0,17.0,42,0.00,CLR,,0.00,WeatherDisplay:10.37,2015-09-03 19:25:00,
2015-09-03 12:30:00,73.0,47.9,29.69,SW,215,10.0,18.0,41,0.00,CLR,,0.00,WeatherDisplay:10.37,2015-09-03 19:30:00,
2015-09-03 12:35:00,72.7,48.3,29.69,SW,230,12.0,20.0,42,0.00,CLR,,0.00,WeatherDisplay:10.37,2015-09-03 19:35:00,